Time,TemperatureF,DewpointF,PressureIn,WindDirection,WindDirectionDegrees,WindSpeedMPH,WindSpeedGustMPH,Humidity,HourlyPrecipIn,Conditions,Clouds,dailyrainin,SoftwareType,DateUTC
2013-01-06 13:22:00,32.0,27.0,-100.00,WNW,291,6.0,12.0,81,0.01,,,0.03,,2013-01-06 21:22:00,
2013-01-06 13:33:00,32.0,27.0,-100.00,WNW,291,6.0,12.0,81,0.01,,,0.03,,2013-01-06 21:33:00,
2013-01-06 13:42:00,32.0,27.0,-100.00,WNW,291,6.0,12.0,81,0.01,,,0.03,,2013-01-06 21:42:00,
2013-01-06 13:52:00,32.0,27.0,-100.00,WNW,291,6.0,12.0,81,0.01,,,0.03,,2013-01-06 21:52:00,
2013-01-06 14:12:00,31.0,28.0,-100.00,NW,306,6.0,14.0,88,0.00,,,0.03,,2013-01-06 22:12:00,
2013-01-06 14:22:00,31.0,28.0,-100.00,NW,306,6.0,14.0,88,0.00,,,0.03,,2013-01-06 22:22:00,
2013-01-06 14:33:00,31.0,28.0,-100.00,NW,306,6.0,14.0,88,0.00,,,0.03,,2013-01-06 22:33:00,
2013-01-06 14:42:00,31.0,28.0,-100.00,NW,306,6.0,14.0,88,0.00,,,0.03,,2013-01-06 22:42:00,
2013-01-06 14:52:00,31.0,28.0,-100.00,NW,306,6.0,14.0,88,0.00,,,0.03,,2013-01-06 22:52:00,
2013-01-06 15:12:00,29.0,27.0,-100.00,WNW,301,6.0,10.0,91,0.00,,,0.03,,2013-01-06 23:12:00,
2013-01-06 15:22:00,29.0,27.0,-100.00,WNW,301,6.0,10.0,91,0.00,,,0.03,,2013-01-06 23:22:00,
2013-01-06 15:32:00,29.0,27.0,-100.00,WNW,301,6.0,10.0,91,0.00,,,0.03,,2013-01-06 23:32:00,
2013-01-06 15:42:00,29.0,27.0,-100.00,WNW,301,6.0,10.0,91,0.00,,,0.03,,2013-01-06 23:42:00,
2013-01-06 15:52:00,29.0,27.0,-100.00,WNW,301,6.0,10.0,91,0.00,,,0.03,,2013-01-06 23:52:00,
2013-01-06 16:23:00,29.0,28.0,-100.00,WNW,299,5.0,11.0,96,0.00,,,0.03,,2013-01-07 00:23:00,
2013-01-06 16:32:00,29.0,28.0,-100.00,WNW,299,5.0,11.0,96,0.00,,,0.03,,2013-01-07 00:32:00,
2013-01-06 16:42:00,29.0,28.0,-100.00,WNW,299,5.0,11.0,96,0.00,,,0.03,,2013-01-07 00:42:00,
2013-01-06 16:52:00,29.0,28.0,-100.00,WNW,299,5.0,11.0,96,0.00,,,0.03,,2013-01-07 00:52:00,
2013-01-06 17:22:00,29.0,28.0,-100.00,NW,310,6.0,11.0,96,0.00,,,0.03,,2013-01-07 01:22:00,
2013-01-06 17:32:00,29.0,28.0,-100.00,NW,310,6.0,11.0,96,0.00,,,0.03,,2013-01-07 01:32:00,
2013-01-06 17:42:00,29.0,28.0,-100.00,NW,310,6.0,11.0,96,0.00,,,0.03,,2013-01-07 01:42:00,
2013-01-06 17:52:00,29.0,28.0,-100.00,NW,310,6.0,11.0,96,0.00,,,0.03,,2013-01-07 01:52:00,
2013-01-06 18:22:00,28.0,27.0,-100.00,NW,306,6.0,12.0,96,0.00,,,-99.99,,2013-01-07 02:22:00,
2013-01-06 18:32:00,28.0,27.0,-100.00,NW,306,6.0,12.0,96,0.00,,,-99.99,,2013-01-07 02:32:00,
2013-01-06 18:42:00,28.0,27.0,-100.00,NW,306,6.0,12.0,96,0.00,,,-99.99,,2013-01-07 02:42:00,
2013-01-06 18:52:00,28.0,27.0,-100.00,NW,306,6.0,12.0,96,0.00,,,-99.99,,2013-01-07 02:52:00,
2013-01-06 19:22:00,28.0,27.0,-100.00,WNW,300,6.0,11.0,96,0.00,,,0.03,,2013-01-07 03:22:00,
2013-01-06 19:32:00,28.0,27.0,-100.00,WNW,300,6.0,11.0,96,0.00,,,0.03,,2013-01-07 03:32:00,
2013-01-06 19:42:00,28.0,27.0,-100.00,WNW,300,6.0,11.0,96,0.00,,,0.03,,2013-01-07 03:42:00,
2013-01-06 19:52:00,28.0,27.0,-100.00,WNW,300,6.0,11.0,96,0.00,,,0.03,,2013-01-07 03:52:00,
2013-01-06 20:12:00,28.0,27.0,-100.00,WNW,298,4.0,10.0,96,0.00,,,0.03,,2013-01-07 04:12:00,
2013-01-06 20:22:00,28.0,27.0,-100.00,WNW,298,4.0,10.0,96,0.00,,,0.03,,2013-01-07 04:22:00,
2013-01-06 20:32:00,28.0,27.0,-100.00,WNW,298,4.0,10.0,96,0.00,,,0.03,,2013-01-07 04:32:00,
2013-01-06 20:42:00,28.0,27.0,-100.00,WNW,298,4.0,10.0,96,0.00,,,0.03,,2013-01-07 04:42:00,
2013-01-06 20:52:00,28.0,27.0,-100.00,WNW,298,4.0,10.0,96,0.00,,,0.03,,2013-01-07 04:52:00,
2013-01-06 21:12:00,28.0,27.0,-100.00,WNW,296,2.0,7.0,96,0.00,,,0.03,,2013-01-07 05:12:00,
2013-01-06 21:22:00,28.0,27.0,-100.00,WNW,296,2.0,7.0,96,0.00,,,0.03,,2013-01-07 05:22:00,
2013-01-06 21:32:00,28.0,27.0,-100.00,WNW,296,2.0,7.0,96,0.00,,,0.03,,2013-01-07 05:32:00,
2013-01-06 21:42:00,28.0,27.0,-100.00,WNW,296,2.0,7.0,96,0.00,,,0.03,,2013-01-07 05:42:00,
2013-01-06 21:52:00,28.0,27.0,-100.00,WNW,296,2.0,7.0,96,0.00,,,0.03,,2013-01-07 05:52:00,
2013-01-06 22:12:00,27.0,26.0,-100.00,WNW,299,4.0,6.0,96,0.00,,,0.03,,2013-01-07 06:12:00,
2013-01-06 22:22:00,27.0,26.0,-100.00,WNW,299,4.0,6.0,96,0.00,,,0.03,,2013-01-07 06:22:00,
2013-01-06 22:32:00,27.0,26.0,-100.00,WNW,299,4.0,6.0,96,0.00,,,0.03,,2013-01-07 06:32:00,
2013-01-06 22:42:00,27.0,26.0,-100.00,WNW,299,4.0,6.0,96,0.00,,,0.03,,2013-01-07 06:42:00,
2013-01-06 22:52:00,27.0,26.0,-100.00,WNW,299,4.0,6.0,96,0.00,,,0.03,,2013-01-07 06:52:00,
2013-01-06 23:12:00,27.0,26.0,-100.00,WNW,298,3.0,7.0,95,0.00,,,0.03,,2013-01-07 07:12:00,
2013-01-06 23:22:00,27.0,26.0,-100.00,WNW,298,3.0,7.0,95,0.00,,,0.03,,2013-01-07 07:22:00,
2013-01-06 23:32:00,27.0,26.0,-100.00,WNW,298,3.0,7.0,95,0.00,,,0.03,,2013-01-07 07:32:00,
2013-01-06 23:42:00,27.0,26.0,-100.00,WNW,298,3.0,7.0,95,0.00,,,0.03,,2013-01-07 07:42:00,
2013-01-06 23:52:00,27.0,26.0,-100.00,WNW,298,3.0,7.0,95,0.00,,,0.03,,2013-01-07 07:52:00,